Onweer radar Meer informatie blitzortung!


Regen radar Meer informatie rain snow radar


Bezoek onze andere website:

Template documentation
and downloads

And another site



15 daagse weersverwachting Vaasa (FI)

  • Overzicht
  • Per uur
  • 15 dagen
  • Extra
  • Vergelijk
  • Kaarten
  • Dagkaart
  • Meer »
  • Info
  • Statistieken
  • Directe link
    Temp 6h Neerslag Wind  
 04:55     22:27    Daglengte: 17:32 Vandaag
03:00
15°
 
1
09:00
17°
 
1
15:00
18°
1.9 mm
2
21:00
16°
3.9 mm
4
 04:58     22:24    Daglengte: 17:26 Morgen
03:00
15°
 
2
09:00
15°
 
3
15:00
16°
 
5
21:00
13°
9.5 mm
5
 05:01     22:21    Daglengte: 17:20 Dinsdag 03 Aug
03:00
13°
27.0 mm
4
09:00
14°
29.0 mm
5
15:00
16°
28.5 mm
5
21:00
15°
 
2
Locatie info
Region: Pohjanmaa
Latitude: 63.0984°N
Longitude: 21.6261°E
7 masl
Postcode: 65100
Temp/Neerslag /Baro Onweer/Dauwpunt
    Temp Baro 1h Neerslag Dauwpunt Wind UV Bewolking  
 04:55     22:27    Daglengte: 17:32 Vandaag
01:00
15°
997.5 hPa   14.5°
1
Windvlaag: 3.6 m/s
52%
02:00
15°
997.3 hPa   14.5°
1
Windvlaag: 3.2 m/s
49%
03:00
15°
997.1 hPa   14.6°
1
Windvlaag: 3.2 m/s
41%
04:00
15°
996.9 hPa   14.5°
1
Windvlaag: 3.1 m/s
65%
05:00
14°
996.6 hPa   14.3°
1
Windvlaag: 3 m/s
74%
06:00
14°
996.5 hPa   14.3°
1
Windvlaag: 2.6 m/s
56%
07:00
15°
996.3 hPa   14.4°
2
Windvlaag: 2.4 m/s
72%
08:00
16°
996.1 hPa   15.0°
2
Windvlaag: 3.3 m/s
80%
09:00
17°
995.8 hPa   14.9°
1
Windvlaag: 3.2 m/s
75%
10:00
17°
995.8 hPa
11%
14.2°
1
Windvlaag: 3 m/s
67%
11:00
19°
995.6 hPa
12%
13.8°
1
Windvlaag: 2.7 m/s
61%
12:00
20°
995.3 hPa
16%
13.5°
1
Windvlaag: 3.3 m/s
27%
13:00
20°
995.2 hPa
36%
13.8°
1
Windvlaag: 3.6 m/s
72%
14:00
19°
995.3 hPa
42%
15.0°
2
Windvlaag: 2.1 m/s
39%
15:00
18°
995.5 hPa 1.9 mm
43%
15.2°
2
Windvlaag: 0.7 m/s
44%
16:00
18°
995.5 hPa 1.4 mm
45%
15.0°
3
Windvlaag: 0.8 m/s
49%
17:00
18°
995.5 hPa 1.2 mm
45%
15.0°
3
Windvlaag: -1.1 m/s
41%
18:00
18°
995.7 hPa 1.2 mm
45%
14.3°
3
Windvlaag: -3.2 m/s
81%
19:00
18°
995.8 hPa
45%
13.7°
4
Windvlaag: -3.7 m/s
36%
20:00
17°
996.1 hPa
44%
12.7°
4
Windvlaag: -3.5 m/s
55%
21:00
16°
996.7 hPa
44%
12.3°
4
Windvlaag: -3.4 m/s
15%
22:00
16°
997.3 hPa
40%
11.3°
4
Windvlaag: -4.1 m/s
19%
23:00
16°
997.8 hPa
37%
10.5°
3
Windvlaag: -4.3 m/s
20%
 04:58     22:24    Daglengte: 17:26 Morgen
00:00
15°
998.1 hPa   10.0°
3
Windvlaag: -5.2 m/s
63%
01:00
15°
998.5 hPa   10.2°
2
Windvlaag: -5.3 m/s
63%
02:00
15°
998.7 hPa   10.1°
3
Windvlaag: -5.3 m/s
74%
03:00
15°
999.0 hPa   9.1°
2
Windvlaag: -4.7 m/s
54%
04:00
14°
999.3 hPa   8.9°
2
Windvlaag: -3.5 m/s
54%
05:00
14°
999.6 hPa
19%
8.8°
2
Windvlaag: -2.2 m/s
50%
06:00
14°
1000.0 hPa
19%
7.9°
3
Windvlaag: -3.1 m/s
39%
07:00
14°
1000.2 hPa
21%
7.8°
3
Windvlaag: -4.9 m/s
30%
08:00
15°
1000.6 hPa
26%
7.6°
3
Windvlaag: -5.4 m/s
31%
09:00
15°
1000.9 hPa
33%
6.5°
3
Windvlaag: -5.4 m/s
32%
10:00
16°
1001.2 hPa
26%
6.5°
4
Windvlaag: -5.9 m/s
39%
11:00
16°
1001.4 hPa
20%
6.9°
4
Windvlaag: -6.1 m/s
39%
12:00
16°
1001.5 hPa
17%
6.9°
4
Windvlaag: -6.3 m/s
38%
13:00
16°
1001.7 hPa
71%
7.3°
4
Windvlaag: -6.2 m/s
50%
14:00
16°
1001.8 hPa
82%
7.4°
4
Windvlaag: -6.2 m/s
67%
15:00
16°
1001.7 hPa
82%
6.8°
5
Windvlaag: -6.4 m/s
80%
16:00
16°
1001.7 hPa
82%
5.8°
4
Windvlaag: -6.4 m/s
77%
17:00
16°
1001.6 hPa
82%
5.3°
4
Windvlaag: -5.3 m/s
67%
18:00
15°
1001.2 hPa 1.9 mm
100%
9.4°
5
Windvlaag: -5.2 m/s
95%
19:00
14°
1001.3 hPa 1.8 mm
100%
9.8°
4
Windvlaag: -5 m/s
95%
20:00
14°
1001.3 hPa 2.4 mm
100%
10.6°
4
Windvlaag: -3.7 m/s
97%
21:00
13°
1001.5 hPa 3.4 mm
100%
10.2°
5
Windvlaag: -2.7 m/s
98%
22:00
13°
1001.5 hPa 4.3 mm
100%
9.7°
4
Windvlaag: -2.8 m/s
97%
23:00
13°
1001.5 hPa 4.2 mm
100%
9.5°
4
Windvlaag: -2 m/s
96%
 05:01     22:21    Daglengte: 17:20 Dinsdag 03 Aug
00:00
13°
1001.5 hPa 4.3 mm
100%
10.2°
4
Windvlaag: -2.1 m/s
98%
01:00
13°
1001.5 hPa 4.4 mm
100%
10.2°
4
Windvlaag: -2.9 m/s
100%
02:00
13°
1001.4 hPa 4.6 mm
100%
10.5°
4
Windvlaag: -3.6 m/s
95%
03:00
13°
1001.3 hPa 5.2 mm
100%
10.7°
4
Windvlaag: -3.5 m/s
88%
04:00
13°
1001.5 hPa 5.5 mm
100%
11.8°
4
Windvlaag: -3.3 m/s
86%
05:00
13°
1001.6 hPa
100%
11.9°
4
Windvlaag: -3.1 m/s
81%
06:00
13°
1001.6 hPa 6.0 mm
99%
11.5°
4
Windvlaag: -2.9 m/s
84%
07:00
13°
1001.6 hPa 6.4 mm
99%
11.3°
4
Windvlaag: -2.9 m/s
83%
08:00
14°
1002.0 hPa 6.6 mm
100%
11.6°
4
Windvlaag: -2.8 m/s
84%
09:00
14°
1002.4 hPa 4.4 mm
100%
11.5°
5
Windvlaag: -1.9 m/s
80%
10:00
14°
1002.9 hPa 7.6 mm
100%
11.9°
5
Windvlaag: -4.8 m/s
73%
11:00
14°
1003.5 hPa 4.7 mm
100%
12.0°
6
Windvlaag: -5.4 m/s
66%
12:00
14°
1004.0 hPa 8.0 mm
100%
11.8°
6
Windvlaag: -4.9 m/s
76%
13:00
14°
1004.4 hPa 8.2 mm
100%
11.8°
6
Windvlaag: -5.4 m/s
82%
14:00
15°
1004.7 hPa
98%
11.4°
5
Windvlaag: -5.5 m/s
73%
15:00
16°
1004.8 hPa
89%
10.4°
5
Windvlaag: -5.3 m/s
36%
16:00
17°
1004.3 hPa
31%
8.8°
5
Windvlaag: 11.1 m/s
33%
17:00
17°
1004.8 hPa
23%
7.2°
5
Windvlaag: 11.6 m/s
35%
18:00
16°
1005.3 hPa
24%
6.1°
4
Windvlaag: 12.4 m/s
55%
19:00
16°
1005.6 hPa
74%
5.8°
3
Windvlaag: 10.8 m/s
67%
20:00
16°
1005.9 hPa
77%
7.4°
3
Windvlaag: 9.1 m/s
18%
21:00
15°
1006.2 hPa
32%
7.4°
2
Windvlaag: 8.8 m/s
20%
22:00
15°
1002.9 hPa 24.6 mm
100%
6.5°
3
Windvlaag: 8.6 m/s
97%
23:00
15°
1003.4 hPa 24.6 mm
100%
7.9°
3
Windvlaag: 7.5 m/s
99%
 05:04     22:17    Daglengte: 17:13 Woensdag 04 Aug
00:00
15°
1003.5 hPa 24.6 mm
100%
7.9°
4
Windvlaag: 6.5 m/s
85%
Temp/Neerslag /Baro Onweer/Dauwpunt
    Temp Baro Neerslag Dauwpunt Wind Bewolking  
 04:55     22:27    Daglengte: 17:32 Vandaag
03:00
15°
997.1 hPa   14.6°
1
41%
06:00
14°
996.5 hPa   14.3°
1
56%
09:00
17°
995.8 hPa   14.9°
1
75%
12:00
20°
995.3 hPa   13.5°
1
27%
15:00
18°
995.5 hPa 1.9 mm 15.2°
2
44%
18:00
18°
995.7 hPa 3.9 mm 14.3°
3
81%
21:00
16°
996.7 hPa   12.3°
4
15%
 04:58     22:24    Daglengte: 17:26 Morgen
00:00
15°
998.1 hPa   10.0°
3
63%
03:00
15°
999.0 hPa   9.1°
2
54%
06:00
14°
1000.0 hPa   7.9°
3
39%
09:00
15°
1000.9 hPa   6.5°
3
32%
12:00
16°
1001.5 hPa   6.9°
4
38%
15:00
16°
1001.7 hPa   6.8°
5
80%
18:00
15°
1001.2 hPa 1.9 mm 9.4°
5
95%
21:00
13°
1001.5 hPa 7.6 mm 10.2°
5
98%
 05:01     22:21    Daglengte: 17:20 Dinsdag 03 Aug
00:00
13°
1001.5 hPa 12.8 mm 10.2°
4
98%
03:00
13°
1001.3 hPa 14.2 mm 10.7°
4
88%
06:00
13°
1001.6 hPa 11.6 mm 11.5°
4
84%
09:00
14°
1002.4 hPa 17.4 mm 11.5°
5
80%
12:00
14°
1004.0 hPa 20.3 mm 11.8°
6
76%
15:00
16°
1004.8 hPa 8.2 mm 10.4°
5
36%
18:00
16°
1005.3 hPa   6.1°
4
55%
21:00
15°
1006.2 hPa   7.4°
2
20%
 05:04     22:17    Daglengte: 17:13 Woensdag 04 Aug
00:00
15°
1003.5 hPa 73.8 mm 7.9°
4
85%
03:00
14°
1005.0 hPa 73.8 mm 7.8°
3
73%
06:00
12°
1010.2 hPa 12.4 mm 9.1°
1
0%
09:00
16°
1011.3 hPa 12.4 mm 6.3°
2
0%
12:00
17°
1012.1 hPa 12.4 mm 3.5°
3
0%
15:00
17°
1012.8 hPa 12.4 mm 3.8°
4
1%
18:00
16°
1013.1 hPa 12.4 mm 4.0°
4
1%
21:00
14°
1013.6 hPa 12.4 mm 8.0°
3
1%
 05:07     22:14    Daglengte: 17:07 Donderdag 05 Aug
00:00
12°
1014.3 hPa 12.4 mm 8.7°
3
1%
03:00
12°
1014.0 hPa 12.4 mm 8.8°
4
1%
06:00
12°
1014.1 hPa 12.4 mm 9.3°
4
0%
09:00
17°
1014.1 hPa 12.4 mm 9.4°
4
0%
12:00
19°
1014.5 hPa 12.4 mm 5.4°
5
0%
15:00
20°
1014.9 hPa 12.4 mm 5.6°
5
0%
18:00
19°
1014.9 hPa 12.4 mm 6.6°
5
1%
21:00
16°
1015.2 hPa 12.4 mm 11.6°
3
1%
 05:10     22:11    Daglengte: 17:01 Vrijdag 06 Aug
00:00
14°
1015.8 hPa 12.4 mm 11.4°
2
1%
03:00
12°
1016.0 hPa 12.4 mm 9.9°
2
0%
06:00
12°
1016.2 hPa 12.4 mm 9.4°
2
1%
09:00
16°
1015.6 hPa 12.4 mm 8.4°
3
1%
12:00
20°
1014.9 hPa 12.4 mm 5.2°
3
1%
15:00
21°
1013.5 hPa 12.4 mm 2.5°
5
1%
18:00
21°
1012.2 hPa 12.4 mm 3.8°
6
0%
21:00
18°
1012.2 hPa 12.4 mm 8.3°
5
1%
 05:12     22:08    Daglengte: 16:56 Zaterdag 07 Aug
00:00
15°
1012.4 hPa 12.4 mm 9.4°
4
0%
03:00
14°
1011.8 hPa 12.4 mm 9.0°
4
1%
06:00
13°
1011.8 hPa 12.4 mm 10.0°
4
1%
09:00
17°
1011.2 hPa 12.4 mm 9.4°
5
1%
12:00
20°
1010.6 hPa 12.4 mm 9.3°
6
1%
15:00
20°
1010.4 hPa 12.5 mm 11.0°
5
1%
18:00
18°
1011.1 hPa 12.9 mm 13.6°
5
1%
21:00
17°
1011.7 hPa 13.0 mm 13.8°
3
1%
 05:15     22:05    Daglengte: 16:50 Zondag 08 Aug
00:00
16°
1011.8 hPa   13.5°
5
1%
03:00
15°
1011.9 hPa 26.1 mm 13.3°
5
1%
09:00
15°
1011.2 hPa 27.6 mm 13.4°
4
1%
15:00
20°
1010.7 hPa 28.0 mm 13.2°
3
1%
21:00
16°
1010.4 hPa 38.2 mm 15.9°
2
1%
 05:18     22:01    Daglengte: 16:43 Maandag 09 Aug
03:00
15°
1010.6 hPa 44.7 mm 15.1°
2
1%
09:00
18°
1012.1 hPa 45.2 mm 16.2°
4
1%
15:00
22°
1013.9 hPa 45.5 mm 10.1°
4
1%
21:00
17°
1014.9 hPa 46.2 mm 15.7°
2
1%
 05:21     21:58    Daglengte: 16:37 Dinsdag 10 Aug
03:00
16°
1016.0 hPa 46.6 mm 15.3°
4
1%
09:00
17°
1016.6 hPa 46.7 mm 15.5°
2
1%
15:00
23°
1015.6 hPa 47.0 mm 12.3°
2
1%
21:00
17°
1013.4 hPa 0.8 mm 13.3°
1
66%
 05:24     21:55    Daglengte: 16:31 Woensdag 11 Aug
03:00
15°
1013.5 hPa 0.6 mm 13.0°
1
61%
09:00
17°
1013.7 hPa 0.5 mm 12.7°
1
62%
15:00
19°
1013.6 hPa 0.3 mm 12.1°
1
63%
21:00
17°
1013.3 hPa 0.8 mm 13.0°
1
65%
 05:27     21:52    Daglengte: 16:25 Donderdag 12 Aug
03:00
15°
1013.7 hPa 0.3 mm 12.7°
0
72%
09:00
16°
1014.1 hPa 0.6 mm 12.2°
1
66%
15:00
18°
1014.3 hPa 0.6 mm 11.7°
2
64%
21:00
16°
1014.5 hPa 0.6 mm 12.8°
2
63%
 05:30     21:49    Daglengte: 16:19 Vrijdag 13 Aug
03:00
15°
1014.9 hPa 0.3 mm 12.4°
2
57%
09:00
16°
1015.4 hPa 0.4 mm 12.0°
2
62%
15:00
18°
1015.5 hPa 0.3 mm 11.2°
3
66%
21:00
16°
1015.0 hPa 0.3 mm 12.4°
2
54%
 05:33     21:45    Daglengte: 16:12 Zaterdag 14 Aug
03:00
14°
1015.0 hPa 0.2 mm 12.0°
1
46%
09:00
16°
1014.4 hPa 0.4 mm 11.6°
1
53%
15:00
19°
1013.8 hPa 0.3 mm 10.4°
1
58%
21:00
17°
1013.0 hPa 0.3 mm 11.7°
0
50%
 05:35     21:42    Daglengte: 16:07 Zondag 15 Aug
03:00
14°
1012.5 hPa 0.5 mm 11.5°
1
46%
09:00
15°
1011.9 hPa 0.2 mm 11.3°
1
45%
15:00
18°
1011.4 hPa 0.9 mm 10.8°
1
56%
21:00
16°
1010.8 hPa 0.7 mm 11.6°
1
61%
  CAPE Lifted Index Hail Supercell Tornado SRH 3km CL BTM PRES CL TOP PRES Swiss DWD icon SMHI TS
 04:55     22:27    Daglengte: 17:32 Vandaag
01:00 0 J/kg 1.8 K 0 % 0 % 0 % 0 m²/s² 0 0 4.05 45
02:00 6 J/kg 1.1 K 0 % 0 % 0 % 0 m²/s² 0 0 3.86 3
03:00 18 J/kg 0.8 K 0 % 0 % 0 % 0 m²/s² 0 0 3.77 3
04:00 15 J/kg 0.7 K 0 % 0 % 0 % 0 m²/s² 0 0 3.76 45
05:00 10 J/kg 1.1 K 0 % 0 % 0 % 0 m²/s² 0 0 4.43 3
06:00 2 J/kg 1.5 K 0 % 0 % 0 % 0 m²/s² 0 0 4.74 3
07:00 0 J/kg 1.2 K 0 % 0 % 0 % 0 m²/s² 0 0 4.35 3
08:00 15 J/kg 0.4 K 0 % 0 % 0 % 0 m²/s² 0 0 3.22 3
09:00 49 J/kg -0.1 K 0 % 0 % 0 % 0 m²/s² 0 0 2.63 3
10:00 151 J/kg -0.7 K 0 % 0 % 0 % 0 m²/s² 0 0 1.58 3
11:00 308 J/kg -1.2 K 0 % 0 % 0 % 0 m²/s² 0 0 1.02 3
12:00 363 J/kg -1.3 K 0 % 0 % 0 % 0 m²/s² 0 0 1.07 3
13:00 286 J/kg -0.9 K 0 % 0 % 0 % 0 m²/s² 0 0 0.99 3
14:00 190 J/kg -0.6 K 0 % 0 % 0 % 0 m²/s² 0 0 1.26 3
15:00 148 J/kg -0.5 K 0 % 0 % 0 % 0 m²/s² 0 0 1.18 80
16:00 204 J/kg -0.6 K 0 % 0 % 0 % 0 m²/s² 0 0 0.69 80
17:00 149 J/kg -0.2 K 0 % 0 % 0 % 0 m²/s² 0 0 1.18 80
18:00 131 J/kg -0.2 K 0 % 0 % 0 % 0 m²/s² 0 0 1.54 3
19:00 35 J/kg 0.2 K 0 % 0 % 0 % 0 m²/s² 0 0 2.18 3
20:00 23 J/kg 0.6 K 0 % 0 % 0 % 0 m²/s² 0 0 2.22 3
21:00 4 J/kg 0.8 K 0 % 0 % 0 % 0 m²/s² 0 0 2.09 80
22:00 2 J/kg 1.1 K 0 % 0 % 0 % 0 m²/s² 0 0 2.18 2
23:00 4 J/kg 1.2 K 0 % 0 % 0 % 0 m²/s² 0 0 2.04 2
 04:58     22:24    Daglengte: 17:26 Morgen
00:00 7 J/kg 1.8 K 0 % 0 % 0 % 0 m²/s² 0 0 2.82 3
01:00 5 J/kg 1.5 K 0 % 0 % 0 % 0 m²/s² 0 0 3.06 3
02:00 21 J/kg 0.8 K 0 % 0 % 0 % 0 m²/s² 0 0 2.24 3
03:00 20 J/kg 1.3 K 0 % 0 % 0 % 0 m²/s² 0 0 2.59 3
04:00 10 J/kg 1.7 K 0 % 0 % 0 % 0 m²/s² 0 0 2.66 3
05:00 9 J/kg 2.0 K 0 % 0 % 0 % 0 m²/s² 0 0 2.96 3
06:00 12 J/kg 1.8 K 0 % 0 % 0 % 0 m²/s² 0 0 2.52 3
07:00 22 J/kg 1.9 K 0 % 0 % 0 % 0 m²/s² 0 0 2.77 3
08:00 56 J/kg 1.3 K 0 % 0 % 0 % 0 m²/s² 0 0 1.75 3
09:00 97 J/kg 0.9 K 0 % 0 % 0 % 0 m²/s² 0 0 1.08 3
10:00 74 J/kg 0.9 K 0 % 0 % 0 % 0 m²/s² 0 0 1.14 3
11:00 109 J/kg 0.9 K 0 % 0 % 0 % 0 m²/s² 0 0 1.2 3
12:00 134 J/kg 1.0 K 0 % 0 % 0 % 0 m²/s² 0 0 1.42 3
13:00 146 J/kg 1.0 K 0 % 0 % 0 % 0 m²/s² 0 0 1.51 3
14:00 142 J/kg 0.9 K 0 % 0 % 0 % 0 m²/s² 0 0 1.29 61
15:00 56 J/kg 1.5 K 0 % 0 % 0 % 0 m²/s² 0 0 2.01 61
16:00 0 J/kg 2.1 K 0 % 0 % 0 % 0 m²/s² 0 0 2.22 61
17:00 0 J/kg 2.1 K 0 % 0 % 0 % 0 m²/s² 0 0 2.22 61
18:00 0 J/kg 1.3 K 0 % 0 % 0 % 0 m²/s² 0 0 1.48 61
19:00 0 J/kg 1.2 K 0 % 0 % 0 % 0 m²/s² 0 0 1.2 61
20:00 0 J/kg 0.9 K 0 % 0 % 0 % 0 m²/s² 0 0 0.99 61
21:00 0 J/kg 2.0 K 0 % 0 % 0 % 0 m²/s² 0 0 2 61
22:00 0 J/kg 2.3 K 0 % 0 % 0 % 0 m²/s² 0 0 2.39 61
23:00 0 J/kg 2.6 K 0 % 0 % 0 % 0 m²/s² 0 0 2.6 61
 05:01     22:21    Daglengte: 17:20 Dinsdag 03 Aug
00:00 0 J/kg 2.7 K 0 % 0 % 0 % 0 m²/s² 0 0 2.79 61
01:00 0 J/kg 3.5 K 0 % 0 % 0 % 0 m²/s² 0 0 3.59 61
02:00 0 J/kg 4.3 K 0 % 0 % 0 % 0 m²/s² 0 0 4.51 61
03:00 0 J/kg 4.3 K 0 % 0 % 0 % 0 m²/s² 0 0 4.54 61
04:00 2 J/kg 4.2 K 0 % 0 % 0 % 0 m²/s² 0 0 4.59 61
05:00 16 J/kg 4.0 K 0 % 0 % 0 % 0 m²/s² 0 0 4.21 61
06:00 2 J/kg 5.2 K 0 % 0 % 0 % 0 m²/s² 0 0 5.32 61
07:00 3 J/kg 5.1 K 0 % 0 % 0 % 0 m²/s² 0 0 5.22 61
08:00 3 J/kg 5.6 K 0 % 0 % 0 % 0 m²/s² 0 0 5.72 61
09:00 11 J/kg 5.5 K 0 % 0 % 0 % 0 m²/s² 0 0 5.68 80
10:00 22 J/kg 5.1 K 0 % 0 % 0 % 0 m²/s² 0 0 5.31 80
11:00 32 J/kg 5.2 K 0 % 0 % 0 % 0 m²/s² 0 0 5.38 80
12:00 15 J/kg 6.3 K 0 % 0 % 0 % 0 m²/s² 0 0 6.48 80
13:00 46 J/kg 6.1 K 0 % 0 % 0 % 0 m²/s² 0 0 6.28 80
14:00 38 J/kg 6.6 K 0 % 0 % 0 % 0 m²/s² 0 0 6.78 3
15:00 34 J/kg 6.9 K 0 % 0 % 0 % 0 m²/s² 0 0 7.08 3
16:00 25 J/kg 7.1 K 0 % 0 % 0 % 0 m²/s² 0 0 7.31 2
17:00 7 J/kg 7.5 K 0 % 0 % 0 % 0 m²/s² 0 0 7.95 2
18:00 6 J/kg 7.3 K 0 % 0 % 0 % 0 m²/s² 0 0 8.98 2
19:00 24 J/kg 7.2 K 0 % 0 % 0 % 0 m²/s² 0 0 10.11 3
20:00 44 J/kg 6.4 K 0 % 0 % 0 % 0 m²/s² 0 0 9.4 1
21:00 31 J/kg 6.3 K 0 % 0 % 0 % 0 m²/s² 0 0 8.67 1
22:00 12 J/kg 6.7 K 0 % 0 % 0 % 0 m²/s² 0 0 9.85
23:00 64 J/kg 5.8 K 0 % 0 % 0 % 0 m²/s² 0 0 9.1
 05:04     22:17    Daglengte: 17:13 Woensdag 04 Aug
00:00 63 J/kg 5.8 K 0 % 0 % 0 % 0 m²/s² 0 0 8.44
Temp Baro Wind Neerslag
  EWN Forecast EWN WRFDA DWD ICON FMI HIRLAM MET Norway GFS
 04:55     22:27    Daglengte: 17:32 Vandaag
03:00 14.8° 997.1 hPa 1.4 m/s 0.0 mm 11.8° 996.8 hPa 2.2 m/s 0.0 mm 15.4° 996.4 hPa 0.8 m/s -2.0 mm 13.3° 997.4 hPa 1.2 m/s 0.0 mm 13.0° 997.3 hPa 2.3 m/s
06:00 14.4° 996.5 hPa 1.5 m/s 0.0 mm 11.8° 996.0 hPa 2.1 m/s 0.0 mm 14.7° 996.4 hPa 1.4 m/s 0.0 mm 13.9° 996.7 hPa 1.3 m/s 0.0 mm 12.8° 996.6 hPa 2.2 m/s
09:00 16.5° 995.8 hPa 1.4 m/s 0.0 mm 16.7° 995.3 hPa 1.3 m/s 0.0 mm 17.0° 995.4 hPa 1.3 m/s 0.0 mm 16.2° 995.9 hPa 1.3 m/s 0.0 mm 16.2° 995.9 hPa 1.9 m/s
12:00 19.5° 995.3 hPa 1.0 m/s 0.0 mm 18.9° 995.2 hPa 2.2 m/s 0.0 mm 20.2° 994.7 hPa 0.7 m/s 0.0 mm 19.9° 995.4 hPa 0.8 m/s 0.0 mm 19.3° 995.8 hPa 1.5 m/s
15:00 18.3° 995.5 hPa 2.4 m/s 1.9 mm 19.1° 995.2 hPa 3.6 m/s 0.0 mm 19.1° 995.1 hPa 3.4 m/s 0.6 mm 18.4° 995.6 hPa 2.3 m/s 0.0 mm 17.5° 996.2 hPa 2.9 m/s
18:00 17.7° 995.7 hPa 3.4 m/s 3.9 mm 20.0° 995.7 hPa 3.3 m/s 0.0 mm 18.4° 995.4 hPa 3.3 m/s 1.1 mm 17.6° 996.3 hPa 3.5 m/s 0.0 mm 17.6° 996.8 hPa 2.3 m/s
21:00 16.4° 996.7 hPa 3.7 m/s 0.0 mm 17.7° 996.0 hPa 2.0 m/s 0.0 mm 16.9° 996.6 hPa 3.3 m/s 0.4 mm 16.3° 998.0 hPa 4.0 m/s 0.0 mm 16.5° 997.2 hPa 2.4 m/s
 04:58     22:24    Daglengte: 17:26 Morgen
00:00 15.5° 998.1 hPa 3.0 m/s 0.0 mm 12.9° 997.4 hPa 2.5 m/s 0.0 mm 16.0° 997.9 hPa 1.6 m/s 0.1 mm 15.8° 999.9 hPa 3.0 m/s 0.0 mm 14.5° 998.2 hPa 1.9 m/s
03:00 14.9° 999.0 hPa 2.5 m/s 0.0 mm 12.0° 997.5 hPa 0.9 m/s 0.0 mm 15.9° 998.8 hPa 2.6 m/s 0.0 mm 15.3° 1001.3 hPa 2.5 m/s 0.0 mm 14.0° 998.7 hPa 2.4 m/s
06:00 14.2° 1000.0 hPa 2.8 m/s 0.0 mm 13.0° 998.6 hPa 1.6 m/s 0.1 mm 15.4° 999.8 hPa 2.9 m/s 0.0 mm 14.1° 1002.1 hPa 2.1 m/s 0.0 mm 13.4° 999.3 hPa 3.1 m/s
09:00 15.5° 1000.9 hPa 3.4 m/s 0.0 mm 14.3° 999.6 hPa 1.4 m/s 2.1 mm 15.5° 1000.8 hPa 3.8 m/s 0.0 mm 16.4° 1002.8 hPa 2.2 m/s 0.0 mm 12.9° 1000.3 hPa 4.7 m/s
12:00 15.9° 1001.5 hPa 4.1 m/s 0.0 mm 15.2° 999.8 hPa 3.7 m/s 8.5 mm 15.9° 1001.3 hPa 4.1 m/s 0.0 mm 16.5° 1003.5 hPa 3.6 m/s 0.0 mm 12.4° 1001.0 hPa 4.4 m/s
15:00 16.0° 1001.7 hPa 4.5 m/s 0.0 mm 17.0° 999.3 hPa 6.3 m/s 9.9 mm 15.5° 1001.4 hPa 4.0 m/s 0.5 mm 16.6° 1003.4 hPa 4.1 m/s 0.0 mm 12.6° 1001.6 hPa 4.3 m/s
18:00 15.2° 1001.2 hPa 5.1 m/s 1.9 mm 15.3° 999.3 hPa 5.6 m/s 10.3 mm 14.6° 1001.4 hPa 3.6 m/s 2.4 mm 12.7° 1001.7 hPa 3.6 m/s
21:00 13.4° 1001.5 hPa 4.5 m/s 7.6 mm 12.2° 999.4 hPa 6.2 m/s 18.2 mm 13.2° 1001.6 hPa 3.7 m/s 2.3 mm 12.3° 1001.5 hPa 3.1 m/s
 05:01     22:21    Daglengte: 17:20 Dinsdag 03 Aug
00:00 13.0° 1001.5 hPa 3.7 m/s 12.8 mm 12.3° 998.7 hPa 5.7 m/s 30.3 mm 12.9° 1001.5 hPa 2.7 m/s 4.0 mm 12.0° 1001.9 hPa 2.9 m/s
03:00 12.9° 1001.3 hPa 4.1 m/s 14.2 mm 11.8° 998.6 hPa 5.4 m/s 39.1 mm 12.8° 1001.3 hPa 2.2 m/s 1.8 mm 12.5° 1002.1 hPa 3.6 m/s
06:00 13.3° 1001.6 hPa 4.4 m/s 11.6 mm 12.5° 997.8 hPa 6.3 m/s 51.2 mm 13.3° 1001.6 hPa 4.0 m/s 0.4 mm 12.3° 1002.5 hPa 2.9 m/s
09:00 13.7° 1002.4 hPa 4.6 m/s 17.4 mm 12.8° 997.7 hPa 8.2 m/s 58.8 mm 13.5° 1002.6 hPa 4.4 m/s 0.9 mm 15.2° 1003.2 hPa 3.6 m/s
12:00 14.2° 1004.0 hPa 5.6 m/s 20.3 mm 12.8° 999.2 hPa 6.7 m/s 66.6 mm 14.0° 1004.2 hPa 4.4 m/s 1.8 mm 16.2° 1004.9 hPa 4.6 m/s
15:00 16.4° 1004.8 hPa 5.0 m/s 8.2 mm 14.6° 1000.2 hPa 5.7 m/s 73.1 mm 16.6° 1004.9 hPa 4.9 m/s 0.3 mm 16.7° 1006.1 hPa 3.5 m/s
18:00 16.2° 1005.3 hPa 3.9 m/s 0.0 mm 16.5° 1001.2 hPa 5.4 m/s 73.8 mm 16.1° 1006.3 hPa 3.5 m/s 0.0 mm 16.8° 1007.0 hPa 2.7 m/s
21:00 15.0° 1006.2 hPa 2.4 m/s 0.0 mm 15.4° 1002.5 hPa 3.2 m/s 73.8 mm 15.0° 1007.1 hPa 2.2 m/s 0.0 mm 14.6° 1008.2 hPa 2.5 m/s
 05:04     22:17    Daglengte: 17:13 Woensdag 04 Aug
00:00 15.3° 1003.5 hPa 3.5 m/s 73.8 mm 15.3° 1003.5 hPa 3.5 m/s 73.8 mm 13.2° 1008.9 hPa 3.2 m/s
03:00 13.5° 1005.0 hPa 3.3 m/s 73.8 mm 13.5° 1005.0 hPa 3.3 m/s 73.8 mm 12.7° 1009.3 hPa 1.4 m/s
06:00 12.4° 1010.2 hPa 1.3 m/s 12.4 mm 12.4° 1010.2 hPa 1.3 m/s 12.4 mm
09:00 16.1° 1011.3 hPa 2.2 m/s 12.4 mm 16.1° 1011.3 hPa 2.2 m/s 12.4 mm
12:00 16.9° 1012.1 hPa 2.9 m/s 12.4 mm 16.9° 1012.1 hPa 2.9 m/s 12.4 mm
15:00 16.8° 1012.8 hPa 3.6 m/s 12.4 mm 16.8° 1012.8 hPa 3.6 m/s 12.4 mm
18:00 16.3° 1013.1 hPa 3.9 m/s 12.4 mm 16.3° 1013.1 hPa 3.9 m/s 12.4 mm
21:00 14.2° 1013.6 hPa 2.9 m/s 12.4 mm 14.2° 1013.6 hPa 2.9 m/s 12.4 mm
 05:07     22:14    Daglengte: 17:07 Donderdag 05 Aug
00:00 12.4° 1014.3 hPa 3.2 m/s 12.4 mm 12.4° 1014.3 hPa 3.2 m/s 12.4 mm
03:00 11.8° 1014.0 hPa 3.6 m/s 12.4 mm 11.8° 1014.0 hPa 3.6 m/s 12.4 mm
06:00 11.6° 1014.1 hPa 3.9 m/s 12.4 mm 11.6° 1014.1 hPa 3.9 m/s 12.4 mm
09:00 17.4° 1014.1 hPa 4.4 m/s 12.4 mm 17.4° 1014.1 hPa 4.4 m/s 12.4 mm
12:00 19.5° 1014.5 hPa 4.5 m/s 12.4 mm 19.5° 1014.5 hPa 4.5 m/s 12.4 mm
15:00 19.7° 1014.9 hPa 5.1 m/s 12.4 mm 19.7° 1014.9 hPa 5.1 m/s 12.4 mm
18:00 19.2° 1014.9 hPa 4.7 m/s 12.4 mm 19.2° 1014.9 hPa 4.7 m/s 12.4 mm
21:00 16.2° 1015.2 hPa 3.0 m/s 12.4 mm 16.2° 1015.2 hPa 3.0 m/s 12.4 mm
 05:10     22:11    Daglengte: 17:01 Vrijdag 06 Aug
00:00 13.5° 1015.8 hPa 2.2 m/s 12.4 mm 13.5° 1015.8 hPa 2.2 m/s 12.4 mm
03:00 12.1° 1016.0 hPa 2.4 m/s 12.4 mm 12.1° 1016.0 hPa 2.4 m/s 12.4 mm
06:00 11.8° 1016.2 hPa 2.3 m/s 12.4 mm 11.8° 1016.3 hPa 2.3 m/s 12.4 mm
09:00 16.1° 1015.6 hPa 2.6 m/s 12.4 mm 16.1° 1015.6 hPa 2.6 m/s 12.4 mm
12:00 20.5° 1014.9 hPa 3.1 m/s 12.4 mm 20.5° 1014.9 hPa 3.1 m/s 12.4 mm
15:00 21.4° 1013.5 hPa 4.6 m/s 12.4 mm 21.4° 1013.5 hPa 4.6 m/s 12.4 mm
18:00 21.3° 1012.2 hPa 6.2 m/s 12.4 mm 21.3° 1012.2 hPa 6.2 m/s 12.4 mm
21:00 18.3° 1012.2 hPa 4.6 m/s 12.4 mm 18.3° 1012.2 hPa 4.6 m/s 12.4 mm
 05:12     22:08    Daglengte: 16:56 Zaterdag 07 Aug
00:00 14.8° 1012.4 hPa 3.7 m/s 12.4 mm 14.8° 1012.4 hPa 3.7 m/s 12.4 mm
03:00 14.1° 1011.8 hPa 3.9 m/s 12.4 mm 14.1° 1011.8 hPa 3.9 m/s 12.4 mm
06:00 13.3° 1011.8 hPa 3.7 m/s 12.4 mm 13.3° 1011.8 hPa 3.7 m/s 12.4 mm
09:00 17.1° 1011.2 hPa 5.0 m/s 12.4 mm 17.1° 1011.2 hPa 5.0 m/s 12.4 mm
12:00 20.0° 1010.6 hPa 5.8 m/s 12.4 mm 20.0° 1010.6 hPa 5.8 m/s 12.4 mm
15:00 20.3° 1010.4 hPa 4.9 m/s 12.5 mm 20.3° 1010.4 hPa 4.9 m/s 12.5 mm
18:00 18.2° 1011.1 hPa 4.5 m/s 12.9 mm 18.2° 1011.1 hPa 4.5 m/s 12.9 mm
21:00 16.9° 1011.7 hPa 3.3 m/s 13.0 mm 16.9° 1011.7 hPa 3.3 m/s 13.0 mm
 05:15     22:05    Daglengte: 16:50 Zondag 08 Aug
00:00 16.0° 1011.8 hPa 4.9 m/s 13.0 mm 16.0° 1011.8 hPa 4.9 m/s 13.0 mm
03:00 15.2° 1011.9 hPa 4.5 m/s 13.1 mm 15.2° 1011.9 hPa 4.5 m/s 13.1 mm
09:00 14.7° 1011.2 hPa 3.8 m/s 13.9 mm 14.7° 1011.2 hPa 3.8 m/s 13.9 mm
15:00 19.9° 1010.7 hPa 3.2 m/s 14.1 mm 19.9° 1010.7 hPa 3.2 m/s 14.1 mm
21:00 16.2° 1010.4 hPa 1.9 m/s 20.8 mm 16.2° 1010.4 hPa 1.9 m/s 20.8 mm
 05:18     22:01    Daglengte: 16:43 Maandag 09 Aug
03:00 15.2° 1010.6 hPa 2.3 m/s 22.6 mm 15.2° 1010.6 hPa 2.3 m/s 22.6 mm
09:00 17.5° 1012.1 hPa 3.5 m/s 22.6 mm 17.5° 1012.1 hPa 3.5 m/s 22.6 mm
15:00 22.0° 1013.9 hPa 4.0 m/s 22.8 mm 22.0° 1013.9 hPa 4.0 m/s 22.8 mm
21:00 17.2° 1014.9 hPa 1.9 m/s 23.3 mm 17.2° 1014.9 hPa 1.9 m/s 23.3 mm
 05:21     21:58    Daglengte: 16:37 Dinsdag 10 Aug
03:00 15.6° 1016.0 hPa 3.6 m/s 23.3 mm 15.6° 1016.0 hPa 3.6 m/s 23.3 mm
09:00 16.6° 1016.6 hPa 1.7 m/s 23.4 mm 16.6° 1016.6 hPa 1.7 m/s 23.4 mm
15:00 22.6° 1015.6 hPa 1.8 m/s 23.5 mm 22.6° 1015.6 hPa 1.8 m/s 23.5 mm
21:00 17.2° 1013.4 hPa 1.3 m/s 0.8 mm
 05:24     21:55    Daglengte: 16:31 Woensdag 11 Aug
03:00 15.0° 1013.5 hPa 0.8 m/s 0.6 mm
09:00 16.5° 1013.7 hPa 0.9 m/s 0.5 mm
15:00 18.7° 1013.6 hPa 1.2 m/s 0.3 mm
21:00 16.8° 1013.3 hPa 0.6 m/s 0.8 mm
 05:27     21:52    Daglengte: 16:25 Donderdag 12 Aug
03:00 14.9° 1013.7 hPa 0.5 m/s 0.3 mm
09:00 15.8° 1014.1 hPa 1.1 m/s 0.6 mm
15:00 18.3° 1014.3 hPa 1.7 m/s 0.6 mm
21:00 16.4° 1014.5 hPa 1.8 m/s 0.6 mm
 05:30     21:49    Daglengte: 16:19 Vrijdag 13 Aug
03:00 14.5° 1014.9 hPa 1.6 m/s 0.3 mm
09:00 15.8° 1015.4 hPa 1.7 m/s 0.4 mm
15:00 18.3° 1015.5 hPa 2.5 m/s 0.3 mm
21:00 16.4° 1015.0 hPa 1.5 m/s 0.3 mm
 05:33     21:45    Daglengte: 16:12 Zaterdag 14 Aug
03:00 14.4° 1015.0 hPa 0.7 m/s 0.2 mm
09:00 15.7° 1014.4 hPa 0.5 m/s 0.4 mm
15:00 18.5° 1013.8 hPa 1.2 m/s 0.3 mm
21:00 16.5° 1013.0 hPa 0.4 m/s 0.3 mm
 05:35     21:42    Daglengte: 16:07 Zondag 15 Aug
03:00 14.2° 1012.5 hPa 0.8 m/s 0.5 mm
09:00 15.5° 1011.9 hPa 0.7 m/s 0.2 mm
15:00 18.1° 1011.4 hPa 1.2 m/s 0.9 mm
21:00 16.2° 1010.8 hPa 1.2 m/s 0.7 mm
FMI Hirlam - 7.5 km EWN WRFDA - 12 km DWD ICON - 7 km GFS - 25 km Basiskaart